Location: Clyde
(45.1830°S, 169.3170°E)
Time: 06:23:11
(UTC+12:00)

Cosmos 2098 Rocket - Pass Details

Date: 14 May 2021
Orbit: 365 x 1178 km, 82.9° (Epoch: 19 June)

Event Time Altitude Azimuth Distance (km) Brightness Sun altitude
Rises 18:54:53 0° 339° (NNW) 2,514 6.7 -15.9°
Reaches altitude 10° 18:57:10 10° 330° (NNW) 1,553 5.7 -16.3°
Maximum altitude 19:00:16 39° 260° (W) 628 3.6 -16.8°
Drops below altitude 10° 19:03:08 10° 188° (S) 1,422 4.9 -17.3°
Enters shadow 19:04:31 - 181° (S) 2,003 5.6 -17.5°
